DW6569 Weather Reports


time (UTC)temp
F
wind
direction
speed
knots
gust
knots
rain 1hr
in
rain 24hr
in
rain mn
in
humidity
%
barometer
mb
20260509053006 47 0 0.0 0.0 0.00 0.00 0.00 68 1011.8
20260509052005 48 0 0.0 0.0 0.00 0.00 0.00 68 1011.8
20260509051006 48 0 0.0 0.0 0.00 0.00 0.00 68 1011.8
20260509050005 48 0 0.0 0.0 0.00 0.00 0.00 67 1011.8
20260509045005 48 0 0.0 0.0 0.00 0.00 0.00 67 1011.8
20260509043006 50 0 0.0 0.0 0.00 0.00 0.00 65 1011.8
20260509042005 50 0 0.0 0.0 0.00 0.00 0.00 64 1011.8
20260509040005 50 0 0.0 0.0 0.00 0.00 0.00 63 1012.1
20260509035006 50 0 0.0 0.0 0.00 0.00 0.00 63 1012.1
20260509034006 51 0 0.0 0.0 0.00 0.00 0.00 62 1012.1
20260509033006 51 0 0.0 0.0 0.00 0.00 0.00 62 1012.1
20260509032006 51 0 0.0 0.0 0.00 0.00 0.00 61 1012.5
20260509031006 51 0 0.0 0.0 0.00 0.00 0.00 61 1012.4
20260509030006 53 0 0.0 0.0 0.00 0.00 0.00 60 1012.5
20260509025006 53 0 0.0 0.0 0.00 0.00 0.00 59 1012.5
20260509024005 54 0 0.0 0.0 0.00 0.00 0.00 58 1012.5
20260509023006 54 0 0.0 0.0 0.00 0.00 0.00 57 1012.5
20260509022006 54 0 0.0 0.0 0.00 0.00 0.00 57 1012.5
20260509021006 54 0 0.0 0.0 0.00 0.00 0.00 57 1012.8
20260509020005 54 0 0.0 0.0 0.00 0.00 0.00 56 1012.8
20260509015006 55 0 0.0 0.0 0.00 0.00 0.00 55 1012.8
20260509014006 56 0 0.0 0.0 0.00 0.00 0.00 55 1012.8
20260509013006 56 0 0.0 0.0 0.00 0.00 0.00 55 1012.8
20260509012006 56 0 0.0 0.0 0.00 0.00 0.00 55 1012.8
20260509011006 57 0 0.0 0.0 0.00 0.00 0.00 54 1012.8
20260509010006 58 0 0.0 0.0 0.00 0.00 0.00 53 1012.8
20260509005006 58 0 0.0 0.0 0.00 0.00 0.00 52 1012.8
20260509004006 59 0 0.0 0.0 0.00 0.00 0.00 52 1012.8
20260509003006 60 0 0.0 0.0 0.00 0.00 0.00 51 1012.8
20260509002007 60 0 0.0 0.0 0.00 0.00 0.00 51 1012.8
20260509000005 61 0 0.0 0.0 0.00 0.00 0.00 50 1012.8
20260508234006 63 0 0.0 0.0 0.00 0.00 0.00 47 1012.8
20260508233006 63 0 0.0 0.0 0.00 0.00 0.00 46 1012.8
20260508232006 64 0 0.0 0.0 0.00 0.00 0.00 43 1012.8
20260508231006 64 0 0.0 0.0 0.00 0.00 0.00 42 1012.8
20260508230006 65 0 0.0 0.0 0.00 0.00 0.00 42 1012.8
20260508225006 65 0 0.0 0.0 0.00 0.00 0.00 39 1012.8
20260508222006 66 0 0.0 0.0 0.00 0.00 0.00 37 1012.5
20260508221004 66 0 0.0 0.0 0.00 0.00 0.00 37 1012.5
20260508220004 66 0 0.0 0.0 0.00 0.00 0.00 39 1012.5
20260508215005 66 0 0.0 0.0 0.00 0.00 0.00 37 1012.2
20260508214004 66 0 0.0 0.0 0.00 0.00 0.00 39 1012.1
20260508213005 66 0 0.0 0.0 0.00 0.00 0.00 40 1012.1
20260508212005 67 0 0.0 0.0 0.00 0.00 0.00 40 1011.8
20260508210004 67 0 0.0 0.0 0.00 0.00 0.00 40 1011.8
20260508205005 68 0 0.0 0.0 0.00 0.00 0.00 45 1011.8
20260508204004 69 0 0.0 0.0 0.00 0.00 0.00 44 1011.8
20260508203005 68 0 0.0 0.0 0.00 0.00 0.00 41 1011.5
20260508202004 68 0 0.0 0.0 0.00 0.00 0.00 41 1011.5
20260508201004 68 0 0.0 0.0 0.00 0.00 0.00 44 1012.5
20260508200004 68 0 0.0 0.0 0.00 0.00 0.00 44 1012.8
20260508195004 67 0 0.0 0.0 0.00 0.00 0.00 42 1012.8
20260508194005 67 0 0.0 0.0 0.00 0.00 0.00 40 1012.8
20260508193005 67 0 0.0 0.0 0.00 0.00 0.00 40 1013.2
20260508192005 67 0 0.0 0.0 0.00 0.00 0.00 44 1013.5
20260508191005 66 0 0.0 0.0 0.00 0.00 0.00 43 1013.5
20260508190004 66 0 0.0 0.0 0.00 0.00 0.00 46 1013.8
20260508185004 66 0 0.0 0.0 0.00 0.00 0.00 42 1013.8
20260508184004 65 0 0.0 0.0 0.00 0.00 0.00 46 1014.2
20260508183005 65 0 0.0 0.0 0.00 0.00 0.00 50 1014.2
20260508182005 65 0 0.0 0.0 0.00 0.00 0.00 45 1014.4
20260508181005 64 0 0.0 0.0 0.00 0.00 0.00 47 1014.5
20260508180004 65 0 0.0 0.0 0.00 0.00 0.00 47 1014.5
20260508175004 63 0 0.0 0.0 0.00 0.00 0.00 53 1014.5
20260508174004 64 0 0.0 0.0 0.00 0.00 0.00 53 1014.9
20260508173005 64 0 0.0 0.0 0.00 0.00 0.00 54 1015.2
20260508172005 64 0 0.0 0.0 0.00 0.00 0.00 56 1015.2
20260508171004 62 0 0.0 0.0 0.00 0.00 0.00 55 1015.5
20260508170005 63 0 0.0 0.0 0.00 0.00 0.00 53 1015.5
20260508163005 61 0 0.0 0.0 0.00 0.00 0.00 56 1016.2
20260508162005 60 0 0.0 0.0 0.00 0.00 0.00 54 1016.5
20260508161005 59 0 0.0 0.0 0.00 0.00 0.00 56 1016.5
20260508155009 58 0 0.0 0.0 0.00 0.00 0.00 56 1016.9
20260508154005 58 0 0.0 0.0 0.00 0.00 0.00 56 1016.9
20260508153004 58 0 0.0 0.0 0.00 0.00 0.00 55 1016.9
20260508152005 59 0 0.0 0.0 0.00 0.00 0.00 54 1016.9
20260508151005 58 0 0.0 0.0 0.00 0.00 0.00 59 1016.9
20260508145005 56 0 0.0 0.0 0.00 0.00 0.00 62 1017.2
20260508144005 55 0 0.0 0.0 0.00 0.00 0.00 67 1016.9
20260508142005 55 0 0.0 0.0 0.00 0.00 0.00 68 1016.9
20260508141005 55 0 0.0 0.0 0.00 0.00 0.00 76 1016.9
20260508135004 52 0 0.0 0.0 0.00 0.00 0.00 80 1016.9
20260508134005 51 0 0.0 0.0 0.00 0.00 0.00 82 1016.9
20260508131005 48 0 0.0 0.0 0.00 0.00 0.00 86 1016.5
20260508130005 46 0 0.0 0.0 0.00 0.00 0.00 84 1016.6
20260508125005 45 0 0.0 0.0 0.00 0.00 0.00 88 1016.5
20260508123005 43 0 0.0 0.0 0.00 0.00 0.00 91 1016.5
20260508122005 42 0 0.0 0.0 0.00 0.00 0.00 91 1016.5
20260508121005 41 0 0.0 0.0 0.00 0.00 0.00 91 1016.2
20260508120005 40 0 0.0 0.0 0.00 0.00 0.00 92 1016.5
20260508113005 36 0 0.0 0.0 0.00 0.00 0.00 91 1016.2
20260508112005 35 0 0.0 0.0 0.00 0.00 0.00 91 1015.9
20260508111005 35 0 0.0 0.0 0.00 0.01 0.00 91 1015.5
20260508110005 35 0 0.0 0.0 0.00 0.01 0.00 91 1015.9
20260508105006 35 0 0.0 0.0 0.00 0.01 0.00 91 1015.5
20260508103006 35 0 0.0 0.0 0.00 0.01 0.00 91 1015.2
20260508101006 36 0 0.0 0.0 0.00 0.01 0.00 90 1015.2
20260508100005 36 0 0.0 0.0 0.00 0.01 0.00 90 1015.2
20260508095005 36 0 0.0 0.0 0.00 0.01 0.00 90 1015.0
20260508093005 38 0 0.0 0.0 0.00 0.01 0.00 90 1015.2
20260508092006 38 0 0.0 0.0 0.00 0.01 0.00 90 1015.2
20260508091005 38 0 0.0 0.0 0.00 0.01 0.00 90 1015.2
20260508085005 38 0 0.0 0.0 0.00 0.01 0.00 89 1014.9
20260508082005 39 0 0.0 0.0 0.00 0.01 0.00 88 1014.9
20260508081005 39 0 0.0 0.0 0.00 0.01 0.00 88 1014.9
20260508080005 40 0 0.0 0.0 0.00 0.01 0.00 88 1014.9
20260508074005 40 0 0.0 0.0 0.00 0.01 0.00 87 1014.9
20260508073005 41 0 0.0 0.0 0.00 0.01 0.00 87 1015.2
20260508072005 41 0 0.0 0.0 0.00 0.01 0.00 88 1015.1
20260508071005 41 0 0.0 0.0 0.00 0.01 0.00 87 1014.9
20260508070006 41 0 0.0 0.0 0.00 0.01 0.00 87 1014.9
20260508065006 42 0 0.0 0.0 0.00 0.02 0.00 87 1014.9
20260508064005 42 0 0.0 0.0 0.00 0.03 0.00 86 1014.9
20260508063010 42 0 0.0 0.0 0.00 0.03 0.00 86 1014.9
20260508062005 42 0 0.0 0.0 0.00 0.04 0.00 85 1014.9
20260508060005 42 0 0.0 0.0 0.00 0.04 0.00 84 1015.2
20260508055005 43 0 0.0 0.0 0.00 0.04 0.00 84 1014.9
20260508054006 43 0 0.0 0.0 0.00 0.04 0.00 83 1015.2